Skip Page Navigation
NASA JPL Caltech
NASA Logo - Jet Propulsion Laboratory + View the NASA Portal
+ Center for Near-Earth Object Studies
JPL Home Earth Solar System Stars & Galaxies Technology
JPL Solar System Dynamics
BODIES ORBITS EPHEMERIDES TOOLS PHYSICAL DATA DISCOVERY FAQ SITE MAP
IMPORTANT: The SSD Announcement email list is now available. Major changes are coming in the near future, including possible hostname and/or URL changes. To be notified of such changes, subscribe to this email list.

Please visit this page for more details.


JPL Small-Body Database Browser
Search: [ help ]  
243884 (2000 YB56)
Classification: Main-belt Asteroid          SPK-ID: 2243884
Ephemeris | Orbit Diagram | Orbital Elements | Mission Design | Physical Parameters | Discovery Circumstances ]

[ show orbit diagram ]
Orbital Elements at Epoch 2459000.5 (2020-May-31.0) TDB
Reference: JPL 10 (heliocentric ecliptic J2000)
 Element Value Uncertainty (1-sigma)   Units 
e .149108858936338 7.8234e-08  
a 2.555210425529542 2.3782e-08 au
q 2.174205914636597 2.0618e-07 au
i 11.38596602680884 8.471e-06 deg
node 275.7114943129706 3.0808e-05 deg
peri 191.9395060306065 3.9215e-05 deg
M 265.2212880722084 3.1755e-05 deg
tp 2459393.277620197685
(2021-Jun-27.77762020)
0.0001354 TDB
period 1491.895599709079
4.08
2.0828e-05
5.702e-08
d
yr
n .241303748110927 3.3688e-09 deg/d
Q 2.936214936422487 2.7328e-08 au
  Orbit Determination Parameters
   # obs. used (total)      239  
   data-arc span      6807 days (18.64 yr)  
   first obs. used      1999-10-13  
   last obs. used      2018-06-02  
   planetary ephem.      DE431  
   SB-pert. ephem.      SB431-N16  
   condition code      0  
   norm. resid. RMS      .56417  
   source      ORB  
   producer      Otto Matic  
   solution date      2019-Jul-13 14:22:31  

Additional Information
 Earth MOID = 1.19226 au 
 Jupiter MOID = 2.22296 au 
 T_jup = 3.395 
[ show covariance matrix ]

Ephemeris | Orbit Diagram | Orbital Elements | Mission Design | Physical Parameters | Discovery Circumstances ]

Physical Parameter Table
Parameter Symbol Value Units Sigma Reference Notes
absolute magnitude H 16.2   n/a MPO450093  

243884 (2000 YB56)          Discovered 2000-Dec-30 by LINEAR at Socorro
Reference: 20100726/Numbers.arcLast Updated: 2010-07-28
Ephemeris | Orbit Diagram | Orbital Elements | Mission Design | Physical Parameters | Discovery Circumstances ]
ABOUT SSD CREDITS/AWARDS PRIVACY/COPYRIGHT GLOSSARY LINKS
FirstGov 2020-Mar-28 10:15 UT
(server date/time)  
NASA Home Page
Site Manager:   Ryan S. Park
Webmaster  Alan B. Chamberlin